Location: �clusier
(49.9361°N, 2.7869°E)
Time: 21:06:30
(UTC+00:00)

NOAA 16 DEB - Visible Passes

Search period start: 21 January 2022 00:00
Search period end: 31 January 2022 00:00
Orbit: 814 x 856 km, 98.7° (Epoch: 20 January)

Date Brightness Start Highest point End Pass type
(mag) Time Alt. Az. Time Alt. Az. Time Alt. Az.
21 Jan ? 19:17:07 11° N 19:17:07 11° N 19:17:27 10° N visible
22 Jan ? 19:00:25 11° NNE 19:00:25 11° NNE 19:00:40 10° NNE visible
22 Jan ? 20:42:04 11° NNW 20:42:04 11° NNW 20:42:12 10° NNW visible
23 Jan ? 18:43:42 10° NNE 18:43:42 10° NNE 18:43:44 10° NNE visible
23 Jan ? 20:25:21 12° N 20:25:21 12° N 20:25:45 10° N visible
24 Jan ? 20:08:39 13° N 20:08:39 13° N 20:09:15 10° N visible
25 Jan ? 19:51:54 14° N 19:51:54 14° N 19:52:41 10° N visible
26 Jan ? 19:35:11 14° N 19:35:11 14° N 19:36:04 10° N visible
26 Jan ? 21:16:51 10° NNW 21:16:51 10° NNW 21:16:51 10° NNW visible
27 Jan ? 19:18:26 14° NNE 19:18:26 14° NNE 19:19:23 10° N visible
27 Jan ? 21:00:06 12° NNW 21:00:06 12° NNW 21:00:30 10° NNW visible
28 Jan ? 19:01:42 13° NNE 19:01:42 13° NNE 19:02:36 10° N visible
28 Jan ? 20:43:21 14° NNW 20:43:21 14° NNW 20:44:05 10° NNW visible
29 Jan ? 18:44:57 12° NNE 18:44:57 12° NNE 18:45:40 10° NNE visible
29 Jan ? 20:26:37 16° N 20:26:37 16° N 20:27:37 10° NNW visible
30 Jan ? 18:28:12 10° NNE 18:28:12 10° NNE 18:28:24 10° NNE visible
30 Jan ? 20:09:52 17° N 20:09:52 17° N 20:11:06 10° N visible
